Simultaneous Nadir Overpasses (SNOs) Predictions

Prediction of SNOs between AQUA and GOES-15 Satellite Orbit:

Table of predicted SNOs for the next 14.0 days since TLE Epoch: 10/31/2025
Index Date Time (AQUA) AQUA Lat,Lon GOES-15 Lat,Lon Distance(km) Time Diff (sec)
1 10/31/2025 22:56:42 0.21, 60.54 0.00, 61.57 116.94 80
2 11/02/2025 22:35:44 -0.95, 65.67 -0.04, 61.60 463.31 80
3 11/03/2025 10:54:49 -0.13, 61.07 -0.03, 61.67 68.09 80
4 11/05/2025 22:52:47 0.07, 61.64 0.06, 61.65 1.23 80
5 11/08/2025 10:50:52 -0.02, 62.19 -0.08, 61.78 45.86 80
6 11/08/2025 23:09:50 1.04, 57.61 0.16, 61.71 466.44 80
7 11/10/2025 22:48:49 -0.13, 62.75 0.11, 61.77 112.82 80
8 11/11/2025 11:07:54 -0.95, 58.16 -0.18, 61.86 421.12 80
9 11/13/2025 10:46:51 0.15, 63.32 -0.13, 61.91 159.61 80
10 11/13/2025 23:05:48 0.85, 58.74 0.20, 61.83 351.62 80
